Bolton Field, OH

8:34 PM EDT on June 27, 2017 (GMT -0400)
Bolton

Weather History for KTZR - January, 2013

Change the Weather History Date:

Wednesday, January 9, 2013

  Actual Average Record
Temperature  
Mean Temperature 38 °F -  
Max Temperature 44 °F 35 °F 60 °F (2008)
Min Temperature 32 °F 23 °F 3 °F (2011)
Degree Days  
Heating Degree Days 27    
Moisture  
Dew Point 31 °F    
Average Humidity 81    
Maximum Humidity 93    
Minimum Humidity 73    
Precipitation  
Precipitation 0.00 in - - ()
Sea Level Pressure  
Sea Level Pressure 30.31 in    
Wind  
Wind Speed 7 mph (SSW)    
Max Wind Speed 14 mph    
Max Gust Speed 21 mph    
Visibility 10 miles    
Events      
Averages and records for this station are not official NWS values.
T = Trace of Precipitation, MM = Missing Value Source: NWS Daily Summary

Daily Weather History Graph

Daily Weather History Graph

Search for Another Location

Airport or City:

Trip Planner

Search our weather history database for the weather conditions in past years. The results will help you decide how hot, cold, wet, or windy it might be!

Date:

Astronomy

Jan. 09, 2013 Rise Set
Actual Time 7:53 AM EST 5:26 PM EST
Civil Twilight 7:23 AM EST 5:56 PM EST
Nautical Twilight 6:50 AM EST 6:29 PM EST
Astronomical Twilight 6:17 AM EST 7:02 PM EST
Moon 5:32 AM EST (1/9) 3:26 PM EST (1/9)
Length of Visible Light 10h 32m
Length of Day
9h 32m
Waning Crescent, 6% of the Moon is Illuminated
Jan 9
Waning Crescent
Jan 11
New
Jan 18
First Quarter
Jan 26
Full
Feb 3
Last Quarter

Hourly Weather History & Observations

Time (EST) Temp. Windchill Dew Point Humidity Pressure Visibility Wind Dir Wind Speed Gust Speed Precip Events Conditions
12:15 AM 33.8 °F 27.7 °F 27.0 °F 76% 30.24 in 10.0 mi SSE 6.9 mph - N/A   Clear
12:55 AM 33.3 °F 27.9 °F 26.6 °F 77% 30.24 in 10.0 mi South 5.8 mph - N/A   Clear
1:15 AM 32.7 °F 27.3 °F 26.6 °F 78% 30.23 in 10.0 mi South 5.8 mph - N/A   Clear
1:35 AM 33.3 °F 27.9 °F 26.8 °F 77% 30.23 in 10.0 mi South 5.8 mph - N/A   Clear
1:55 AM 33.1 °F 27.7 °F 26.6 °F 77% 30.22 in 10.0 mi SSE 5.8 mph - N/A   Clear
2:15 AM 32.4 °F 26.0 °F 26.4 °F 79% 30.23 in 10.0 mi South 6.9 mph - N/A   Clear
2:35 AM 33.3 °F 28.9 °F 26.8 °F 77% 30.23 in 10.0 mi SSE 4.6 mph - N/A   Clear
2:55 AM 32.4 °F 29.1 °F 27.1 °F 81% 30.22 in 10.0 mi SSE 3.5 mph - N/A   Scattered Clouds
3:15 AM 32.7 °F 27.3 °F 27.3 °F 81% 30.22 in 10.0 mi SSE 5.8 mph - N/A   Overcast
3:35 AM 33.4 °F 27.3 °F 27.7 °F 79% 30.22 in 10.0 mi South 6.9 mph - N/A   Overcast
3:55 AM 35.6 °F 29.9 °F 28.4 °F 75% 30.21 in 10.0 mi South 6.9 mph - N/A   Overcast
4:15 AM 36.5 °F 29.7 °F 28.6 °F 73% 30.22 in 10.0 mi South 9.2 mph - N/A   Overcast
4:35 AM 37.4 °F 31.4 °F 29.3 °F 73% 30.22 in 10.0 mi South 8.1 mph - N/A   Overcast
4:55 AM 37.2 °F 31.2 °F 29.7 °F 74% 30.20 in 10.0 mi South 8.1 mph - N/A   Overcast
5:15 AM 36.9 °F 30.1 °F 30.0 °F 76% 30.20 in 10.0 mi South 9.2 mph - N/A   Overcast
5:35 AM 36.7 °F 30.5 °F 30.7 °F 79% 30.20 in 10.0 mi South 8.1 mph - N/A   Overcast
5:55 AM 36.7 °F 30.5 °F 31.8 °F 83% 30.21 in 10.0 mi South 8.1 mph - N/A   Overcast
6:15 AM 36.9 °F 30.1 °F 32.2 °F 83% 30.21 in 10.0 mi SSW 9.2 mph - N/A   Overcast
6:35 AM 36.9 °F 30.7 °F 32.9 °F 86% 30.22 in 10.0 mi SSW 8.1 mph - N/A   Overcast
6:55 AM 36.9 °F 30.7 °F 33.1 °F 86% 30.23 in 10.0 mi SSW 8.1 mph - N/A   Overcast
7:15 AM 37.6 °F 31.0 °F 33.8 °F 86% 30.24 in 10.0 mi SSW 9.2 mph - N/A   Overcast
7:50 AM 37.4 °F 30.8 °F 33.8 °F 87% 30.25 in 10.0 mi SSW 9.2 mph - N/A   Overcast
8:50 AM 39.2 °F 32.0 °F 35.6 °F 87% 30.25 in 7.0 mi South 11.5 mph - N/A   Overcast
9:50 AM 39.2 °F 31.2 °F 37.4 °F 93% 30.28 in 10.0 mi SW 13.8 mph 20.7 mph N/A   Mostly Cloudy
10:50 AM 39.2 °F 32.0 °F 37.4 °F 93% 30.29 in 10.0 mi SW 11.5 mph - N/A   Mostly Cloudy
11:50 AM 41.0 °F 34.3 °F 37.4 °F 87% 30.31 in 10.0 mi WSW 11.5 mph - N/A   Scattered Clouds
12:50 PM 42.8 °F 37.5 °F 37.4 °F 81% 30.30 in 10.0 mi WSW 9.2 mph - N/A   Clear
1:50 PM 42.8 °F 36.6 °F 37.4 °F 81% 30.29 in 10.0 mi WSW 11.5 mph - N/A   Clear
2:50 PM 44.6 °F 39.2 °F 37.4 °F 76% 30.33 in 10.0 mi SW 10.4 mph - N/A   Clear
3:50 PM 42.8 °F 37.5 °F 35.6 °F 76% 30.34 in 10.0 mi SW 9.2 mph - N/A   Clear
4:47 PM 41.0 °F 35.2 °F 35.6 °F 81% 30.35 in 10.0 mi SW 9.2 mph - N/A   Clear
5:55 PM 39.2 °F 35.0 °F 33.8 °F 81% 30.39 in 10.0 mi WSW 5.8 mph - N/A   Clear
8:15 PM 39.2 °F 37.0 °F 31.6 °F 74% 30.44 in 10.0 mi WSW 3.5 mph - N/A   Clear
8:35 PM 36.7 °F 32.0 °F 30.7 °F 79% 30.44 in 10.0 mi SW 5.8 mph - N/A   Clear
8:55 PM 34.0 °F 28.8 °F 30.0 °F 85% 30.45 in 10.0 mi SW 5.8 mph - N/A   Clear
9:15 PM 34.3 °F 29.2 °F 30.0 °F 84% 30.46 in 10.0 mi SW 5.8 mph - N/A   Clear
9:35 PM 33.1 °F 27.7 °F 29.3 °F 86% 30.46 in 10.0 mi SW 5.8 mph - N/A   Clear
9:55 PM 32.4 °F 26.9 °F 28.8 °F 87% 30.46 in 10.0 mi SW 5.8 mph - N/A   Clear
10:15 PM 34.9 °F 30.8 °F 30.4 °F 84% 30.47 in 10.0 mi WSW 4.6 mph - N/A   Clear
10:35 PM 33.6 °F 29.4 °F 29.3 °F 84% 30.48 in 10.0 mi SW 4.6 mph - N/A   Clear
10:55 PM 33.3 °F 27.9 °F 29.3 °F 85% 30.50 in 10.0 mi SW 5.8 mph - N/A   Clear
11:15 PM 32.2 °F 26.7 °F 28.9 °F 88% 30.51 in 10.0 mi SW 5.8 mph - N/A   Clear
11:35 PM 32.7 °F 28.3 °F 29.5 °F 88% 30.51 in 10.0 mi WSW 4.6 mph - N/A   Clear
11:55 PM 34.9 °F 30.8 °F 30.2 °F 83% 30.50 in 10.0 mi SW 4.6 mph - N/A   Clear